Lubbock, TX

4:24 AM CST on December 15, 2019 (GMT -0600)
Lubbock International

Weather History for KLBB - May, 2019

Change the Weather History Date:

Sunday, May 19, 2019

  Actual Average Record
Temperature  
Mean Temperature 64 °F 71 °F  
Max Temperature 81 °F 85 °F 105 °F (1996)
Min Temperature 46 °F 57 °F 42 °F (1971)
Degree Days  
Heating Degree Days 2 1  
Month to date heating degree days 52 32  
Since 1 July heating degree days 3449 3369  
Cooling Degree Days 0 7  
Month to date cooling degree days 69 92  
Year to date cooling degree days 132 148  
Growing Degree Days 14 (Base 50)    
Moisture  
Dew Point 38 °F    
Average Humidity 39    
Maximum Humidity 60    
Minimum Humidity 21    
Precipitation  
Precipitation 0.00 in 0.08 in 0.80 in (1967)
Month to date precipitation 0.69 1.21  
Year to date precipitation 3.61 5.12  
Snow  
Snow 0.00 in 0.00 in 0.00 in (2002)
Month to date snowfall T 0.0  
Since 1 July snowfall 10.1 8.2  
Snow Depth 0.00 in    
Sea Level Pressure  
Sea Level Pressure 29.81 in    
Wind  
Wind Speed 11 mph ()    
Max Wind Speed 25 mph    
Max Gust Speed 31 mph    
Visibility 10.0 miles    
Events      
T = Trace of Precipitation, MM = Missing Value Source: Averaged Metar Reports

Daily Weather History Graph

Daily Weather History Graph

Search for Another Location

Airport or City:

Astronomy

May. 19, 2019 Rise Set
Actual Time 6:43 AM CDT 8:43 PM CDT
Civil Twilight 6:16 AM CDT 9:11 PM CDT
Nautical Twilight 5:42 AM CDT 9:45 PM CDT
Astronomical Twilight 5:06 AM CDT 10:21 PM CDT
Moon 9:46 PM CDT (5/19) 7:29 AM CDT (5/19)
Length of Visible Light 14h 55m
Length of Day
13h 59m
Full, 99% of the Moon is Illuminated
May 19
Full
May 26
Last Quarter
Jun 3
New
Jun 10
First Quarter
Jun 17
Full

Hourly Weather History & Observations

Time (CDT) Temp. Dew Point Humidity Pressure Visibility Wind Dir Wind Speed Gust Speed Precip Events Conditions
12:53 AM 53.1 °F 24.1 °F 32% 29.74 in 10.0 mi West 8.1 mph - N/A   Partly Cloudy
1:53 AM 53.1 °F 24.1 °F 32% 29.75 in 10.0 mi WNW 9.2 mph - N/A   Partly Cloudy
2:53 AM 52.0 °F 24.1 °F 34% 29.75 in 10.0 mi North 9.2 mph - N/A   Partly Cloudy
3:53 AM 52.0 °F 26.1 °F 37% 29.76 in 10.0 mi North 9.2 mph - N/A   Partly Cloudy
4:53 AM 50.0 °F 28.9 °F 44% 29.78 in 10.0 mi NNE 6.9 mph - N/A   Partly Cloudy
5:53 AM 51.1 °F 33.1 °F 50% 29.79 in 10.0 mi NNE 10.4 mph - N/A   Partly Cloudy
6:53 AM 46.9 °F 33.1 °F 59% 29.83 in 10.0 mi North 4.6 mph - N/A   Partly Cloudy
7:53 AM 53.1 °F 36.0 °F 52% 29.85 in 10.0 mi NE 4.6 mph - N/A   Partly Cloudy
8:53 AM 60.1 °F 39.9 °F 47% 29.87 in 10.0 mi East 13.8 mph - N/A   Scattered Clouds
9:53 AM 63.0 °F 39.9 °F 43% 29.90 in 10.0 mi SE 10.4 mph - N/A   Scattered Clouds
10:53 AM 66.9 °F 39.9 °F 37% 29.91 in 10.0 mi SE 11.5 mph - N/A   Scattered Clouds
11:53 AM 70.0 °F 39.9 °F 33% 29.90 in 10.0 mi ESE 10.4 mph - N/A   Scattered Clouds
12:53 PM 75.0 °F 37.0 °F 25% 29.89 in 10.0 mi SE 15.0 mph 23.0 mph N/A   Scattered Clouds
1:53 PM 77.0 °F 39.0 °F 25% 29.87 in 10.0 mi SE 16.1 mph 24.2 mph N/A   Scattered Clouds
2:53 PM 77.0 °F 37.9 °F 24% 29.85 in 10.0 mi SE 17.3 mph 23.0 mph N/A   Mostly Cloudy
3:53 PM 80.1 °F 37.0 °F 21% 29.81 in 10.0 mi SSE 19.6 mph 26.5 mph N/A   Mostly Cloudy
4:53 PM 79.0 °F 41.0 °F 26% 29.80 in 10.0 mi SE 19.6 mph 27.6 mph N/A   Mostly Cloudy
5:53 PM 75.9 °F 43.0 °F 31% 29.78 in 10.0 mi SE 18.4 mph 26.5 mph N/A   Mostly Cloudy
6:53 PM 75.0 °F 44.1 °F 33% 29.78 in 10.0 mi ESE 21.9 mph - N/A   Mostly Cloudy
7:53 PM 73.9 °F 46.0 °F 37% 29.76 in 10.0 mi ESE 24.2 mph 31.1 mph N/A   Mostly Cloudy
8:53 PM 70.0 °F 48.9 °F 47% 29.76 in 10.0 mi ESE 20.7 mph 27.6 mph N/A   Mostly Cloudy
9:53 PM 66.9 °F 48.9 °F 52% 29.77 in 10.0 mi SE 20.7 mph - N/A   Scattered Clouds
10:53 PM 66.0 °F 51.1 °F 59% 29.77 in 10.0 mi SE 20.7 mph - N/A   Partly Cloudy
11:53 PM 66.0 °F 52.0 °F 60% 29.77 in 10.0 mi SE 20.7 mph - N/A   Scattered Clouds